Location: Fort Wayne
(41.1310°N, 85.1290°W)
Time: 03:38:12
(UTC-04:00)

Tiros 1 despin weight - Visible Passes

Search period start: 01 September 2014 00:00
Search period end: 11 September 2014 00:00
Orbit: 601 x 653 km, 48.2° (Epoch: 31 August)

Date Brightness Start Highest point End Pass type
(mag) Time Alt. Az. Time Alt. Az. Time Alt. Az.
01 Sep ? 05:13:49 30° S 05:15:13 38° SE 05:19:34 10° ENE visible
02 Sep ? 03:55:19 12° ESE 03:55:19 12° ESE 03:55:55 10° E visible
02 Sep ? 05:32:34 34° SW 05:34:32 72° SSE 05:39:14 10° ENE visible
03 Sep ? 04:14:01 24° ESE 04:14:01 24° ESE 04:16:30 10° ENE visible
03 Sep ? 05:51:16 24° WSW 05:54:00 69° NNW 05:58:43 10° ENE visible
04 Sep ? 04:32:40 46° E 04:32:40 46° E 04:36:18 10° ENE visible
04 Sep ? 06:09:54 15° W 06:13:36 47° NNW 06:18:10 10° ENE visible
05 Sep ? 04:51:16 82° NNE 04:51:16 82° NNE 04:55:50 10° ENE visible
05 Sep ? 06:28:59 10° WNW 06:33:19 37° N 06:37:43 10° ENE visible
06 Sep ? 03:32:36 14° ENE 03:32:36 14° ENE 03:33:19 10° ENE visible
06 Sep ? 05:09:50 47° WNW 05:10:40 54° NNW 05:15:17 10° ENE visible
07 Sep ? 03:51:10 23° ENE 03:51:10 23° ENE 03:52:56 10° ENE visible
07 Sep ? 05:28:24 27° WNW 05:30:20 40° NNW 05:34:47 10° ENE visible
08 Sep ? 04:09:43 33° NE 04:09:43 33° NE 04:12:23 10° ENE visible
08 Sep ? 05:46:57 16° WNW 05:50:05 34° N 05:54:24 10° ENE visible
09 Sep ? 04:28:16 39° NNE 04:28:16 39° NNE 04:31:51 10° ENE visible
09 Sep ? 06:05:35 10° WNW 06:09:52 35° N 06:14:11 10° ENE visible
10 Sep ? 04:46:50 36° NNW 04:47:04 36° N 04:51:24 10° ENE visible
10 Sep ? 06:25:11 10° WNW 06:29:36 41° NNE 06:34:04 10° E visible
